Погода в Газимурском Заводе

Россия / Забайкальский край     51°32′52″N   118°20′26″E
темп.,
°C
ветер,
м/с
пор.,
м/с
влажн.,
%
обл.,
%
осадки,
мм/ч
давл.,
гПа
погр.,
м
28 февраля, вс
вс2800:00−19зсз3127991 0.0 1026420
03:00−23з3118454 0.0 1030235
06:00−26зюз23900 0.0 103230
09:00−27зюз23870 0.0 103558
12:00−19з48770 0.0 1035744
15:00−18зсз57740 0.0 10331038
18:00−19з388866 0.0 1034296
21:00−23зюз229482 0.1 103720
1 марта, пн
пн100:00−26юз229383 0.0 103919
03:00−28юз229368 0.0 104019
06:00−30юз22890 0.0 103919
09:00−29ююз12850 0.0 103921
12:00−20ююз23790 0.0 1037424
15:00−16зсз358034 0.1 10331157
18:00−17з2587100 0.3 1032221
21:00−24ююз229087 0.3 103320
2 марта, вт
вт200:00−25ю229075 0.0 103134
03:00−24ююв229288 0.0 103042
06:00−25ю2297100 0.0 102732
09:00−25ююв2397100 0.0 1026108
12:00−20ю2493100 0.0 1023333
15:00−16ю359099 0.0 1019430
18:00−18ю249495 0.0 1017105
21:00−25ю239779 0.0 101828
3 марта, ср
ср300:00−25ю229782 0.0 101746
03:00−24ю229591 0.0 101522
06:00−24ю229351 0.0 101320
09:00−20ю119451 0.0 101327
12:00−11юз1290100 0.2 1010331
15:00−7зсз51073100 0.3 10081313
18:00−10зсз238699 0.0 100763
21:00−11з119799 0.9 100956
4 марта, чт
чт400:00−14з4991100 0.3 1010293
03:00−20зсз2210097 0.3 101225
06:00−24сз229999 0.1 101720
09:00−26сз129998 0.1 102234
12:00−21ссз358495 0.0 1023722
15:00−19ссз467998 0.1 10251114
18:00−21сз3788100 0.1 1028414
21:00−28зсз1293100 0.1 103319